Location: ActonStarParty
(42.4766°N, 71.4538°W)
Time: 13:14:55
(UTC-04:00)

NOSS 3-3 (C) - Pass Details

Date: 19 April 2018
Orbit: 880 x 1332 km, 63.4° (Epoch: 07 September)

Event Time Altitude Azimuth Distance (km) Brightness Sun altitude
Rises 20:54:19 0° 212° (SSW) 3,493 6.9 -14.7°
Reaches altitude 10° 20:56:43 10° 212° (SSW) 2,583 6.2 -15.0°
Maximum altitude 21:02:43 86° 125° (SE) 966 3.9 -16.0°
Drops below altitude 10° 21:09:21 10° 37° (NE) 2,843 6.4 -17.0°
Sets 21:12:07 0° 37° (NE) 3,868 7.1 -17.4°
